Date,TemperatureHighF,TemperatureAvgF,TemperatureLowF,DewpointHighF,DewpointAvgF,DewpointLowF,HumidityHigh,HumidityAvg,HumidityLow,PressureMaxIn,PressureMinIn,WindSpeedMaxMPH,WindSpeedAvgMPH,GustSpeedMaxMPH,PrecipitationSumIn
2013-1-1,49,38,31,24,21,18,65,51,34,0.00,40.00,3,0,10,0.00
2013-1-2,51,40,33,21,18,16,62,42,26,0.00,40.00,6,1,12,0.00
2013-1-3,51,43,38,18,15,11,41,33,21,0.00,40.00,5,1,13,0.00
2013-1-4,51,37,30,19,16,12,60,44,22,0.00,40.00,4,0,9,0.00
2013-1-5,49,37,29,23,20,17,66,52,30,0.00,40.00,6,0,14,0.00
2013-1-6,49,43,38,22,20,19,50,38,30,0.00,40.00,6,2,15,0.00
2013-1-7,56,43,34,22,20,18,58,40,24,0.00,40.00,3,1,9,0.00
2013-1-8,56,39,31,28,24,21,70,55,28,0.00,40.00,1,0,6,0.00
2013-1-9,60,44,33,32,28,25,75,54,30,0.00,40.00,5,0,12,0.00
2013-1-10,61,46,38,34,29,25,69,53,28,0.00,40.00,12,2,56,0.00
2013-1-11,44,39,35,28,16,10,65,39,26,0.00,40.00,8,2,18,0.00
2013-1-12,42,37,31,19,13,10,56,39,28,0.00,40.00,6,1,13,0.00
2013-1-13,42,35,30,12,10,8,44,36,28,0.00,40.00,7,2,15,0.00
2013-1-14,41,33,29,13,9,3,45,36,25,0.00,40.00,4,1,11,0.00
2013-1-15,42,32,26,11,7,4,45,35,24,0.00,40.00,4,0,9,0.00
2013-1-16,52,36,27,20,16,11,58,45,26,0.00,40.00,3,0,9,0.00
2013-1-17,57,43,30,22,20,19,65,43,23,0.00,40.00,5,1,13,0.00
2013-1-18,59,44,33,24,21,18,60,42,24,0.00,40.00,5,1,15,0.00
2013-1-19,59,41,32,28,24,22,67,52,27,0.00,40.00,4,0,10,0.00
2013-1-20,60,41,31,29,23,21,67,51,24,0.00,40.00,4,0,8,0.00
2013-1-21,60,42,31,27,22,20,67,49,23,0.00,40.00,4,0,10,0.00
2013-1-22,63,43,32,27,22,20,65,47,20,0.00,40.00,3,0,8,0.00
2013-1-23,60,45,33,28,25,21,62,46,27,0.00,40.00,1,0,5,0.00
2013-1-24,55,50,44,41,32,27,72,53,38,0.00,40.00,3,0,9,0.00
2013-1-25,62,52,46,45,43,41,89,71,47,0.00,40.00,1,0,5,0.00
2013-1-26,51,49,49,48,46,44,91,88,77,0.00,40.00,1,0,5,0.00
2013-3-27,81,74,66,22,19,17,18,12,9,0.00,40.00,5,1,14,0.00
2013-3-28,83,69,54,34,26,21,44,22,12,0.00,40.00,6,1,19,0.00
2013-3-29,85,69,55,38,31,22,50,27,10,0.00,40.00,4,0,13,0.00
2013-3-30,84,68,56,42,33,-100,50,30,12,0.00,40.00,5,0,11,0.00
2013-3-31,82,68,55,40,33,23,54,30,12,0.00,40.00,5,0,15,0.00
2013-4-1,81,69,60,38,27,6,43,24,6,0.00,40.00,7,2,23,0.00
2013-4-2,76,65,56,34,32,30,41,29,21,0.00,40.00,9,1,22,0.00
2013-4-3,83,66,52,38,31,24,54,30,12,0.00,40.00,3,0,8,0.00
2013-4-4,88,70,54,38,27,15,48,24,7,0.00,40.00,5,0,18,0.00
2013-4-5,89,74,64,37,27,15,37,19,7,0.00,40.00,6,1,17,0.00
2013-4-6,87,73,59,38,30,23,44,22,11,0.00,40.00,5,1,13,0.00
2013-4-7,86,73,59,38,26,11,41,20,7,0.00,40.00,7,1,18,0.00
2013-4-8,71,62,50,42,36,29,71,41,22,0.00,40.00,13,4,47,1.84
2013-4-9,62,56,53,38,30,24,57,37,26,0.00,40.00,7,2,17,3.60
2013-4-10,70,58,48,32,25,19,44,29,15,0.00,40.00,5,1,17,3.60
2013-4-11,79,64,51,39,31,25,53,33,15,0.00,40.00,7,1,15,3.60
2013-4-12,83,66,51,38,29,16,56,30,9,0.00,40.00,6,1,16,3.60
2013-4-13,88,71,54,39,28,18,49,24,8,0.00,40.00,10,2,33,3.60
2013-4-14,89,76,65,33,30,24,30,19,10,0.00,40.00,11,3,31,3.60
2013-4-15,85,73,64,40,32,22,34,24,11,0.00,40.00,10,4,33,3.60
2013-4-16,74,65,55,41,31,16,41,29,15,0.00,40.00,10,4,46,4.00
2013-4-17,58,53,51,32,27,13,45,37,20,0.00,40.00,9,2,24,2.72
2013-4-18,69,57,46,21,15,9,37,20,10,0.00,40.00,4,0,11,4.08
2013-4-19,77,62,48,24,18,11,39,20,8,0.00,40.00,5,1,15,4.08
2013-4-20,81,67,51,30,22,15,42,21,9,0.00,40.00,8,1,22,4.08
2013-4-21,89,71,53,35,24,13,47,22,6,0.00,40.00,5,1,20,4.08
2013-4-22,94,77,60,29,21,13,29,14,6,0.00,40.00,8,1,29,4.08
2013-4-23,80,72,64,27,16,0,23,13,6,0.00,40.00,5,1,14,4.08
2013-4-24,85,69,52,18,9,3,23,11,5,0.00,40.00,5,1,14,4.08
2013-4-25,82,69,57,29,21,6,30,17,8,0.00,40.00,4,0,17,4.08
2013-4-26,88,73,58,35,22,7,40,18,5,0.00,40.00,8,1,18,4.08
2013-4-27,91,73,56,32,18,8,37,15,5,0.00,40.00,3,0,11,4.08
2013-4-28,94,76,58,33,21,11,38,16,5,0.00,40.00,4,0,12,4.08
2013-4-29,99,80,61,36,22,11,39,15,4,0.00,40.00,6,1,22,4.08
2013-4-30,96,84,75,29,16,6,17,9,4,0.00,40.00,12,3,42,4.11
2013-5-1,86,77,66,30,12,-5,25,10,3,0.00,40.00,8,2,25,4.32
2013-5-2,80,68,58,19,12,5,21,12,7,0.00,40.00,6,2,16,4.32
2013-5-3,88,72,61,17,10,2,17,10,4,0.00,40.00,5,1,12,4.32
2013-5-4,93,77,57,28,14,6,32,11,4,0.00,40.00,7,1,21,4.32
2013-5-5,82,76,70,34,25,12,26,16,8,0.00,40.00,7,1,31,4.32
2013-5-6,80,73,68,41,34,22,31,24,14,0.00,40.00,8,1,29,4.32
2013-5-7,78,68,54,49,40,28,70,40,16,0.00,40.00,6,1,22,5.06
2013-5-8,78,65,52,47,40,31,74,44,19,0.00,40.00,7,1,16,7.20
2013-5-9,84,68,56,48,39,30,58,37,14,0.00,40.00,6,1,19,7.20
2013-5-10,88,70,57,50,41,-100,73,41,16,0.00,40.00,9,1,17,7.20
2013-5-11,91,76,61,46,36,-100,55,27,11,0.00,40.00,6,1,16,7.20
2013-5-12,97,79,61,40,31,21,45,21,7,0.00,40.00,3,0,9,7.20
2013-5-13,102,82,64,40,29,17,41,18,5,0.00,40.00,4,0,9,7.20
2013-5-14,101,84,68,44,29,16,40,16,5,0.00,40.00,8,1,26,7.20
2013-5-15,97,85,68,41,22,6,37,12,4,0.00,40.00,9,2,29,7.20
2013-5-16,99,79,66,37,9,-100,34,12,4,0.00,40.00,4,1,20,7.20
2013-5-17,90,80,70,39,25,-100,31,15,7,0.00,40.00,8,2,29,7.20
2013-5-18,87,77,64,43,33,27,43,21,13,0.00,40.00,9,1,23,7.20
2013-5-19,90,78,66,39,30,20,35,20,8,0.00,40.00,9,2,22,7.20
2013-5-20,87,75,66,34,31,25,29,20,12,0.00,40.00,5,1,11,7.20
2013-5-21,93,80,64,39,27,15,39,17,6,0.00,40.00,4,1,14,7.20
2013-5-22,98,84,68,34,21,11,28,11,5,0.00,40.00,10,2,33,7.20
2013-5-23,96,85,73,31,20,8,21,10,4,0.00,40.00,12,2,35,7.20
2013-5-24,97,81,63,31,17,5,29,10,4,0.00,40.00,8,1,29,7.20
2013-5-25,97,82,66,38,20,7,36,13,4,0.00,40.00,7,1,25,7.20
2013-5-26,97,83,71,34,19,13,26,10,5,0.00,40.00,9,1,25,7.20
2013-5-27,97,83,68,35,21,13,29,12,5,0.00,40.00,5,1,21,7.20
2013-5-28,93,83,72,37,27,21,26,14,9,0.00,40.00,8,2,25,7.20
2013-5-29,93,81,67,40,28,18,37,16,8,0.00,40.00,6,1,18,7.20
2013-5-30,100,85,70,41,27,14,32,15,5,0.00,40.00,5,1,16,7.20
2013-5-31,99,86,71,45,26,4,38,15,4,0.00,40.00,8,2,21,7.20
2013-6-1,100,86,74,16,10,4,9,6,3,0.00,40.00,5,1,16,7.20
2013-6-2,105,89,72,29,19,11,20,8,4,0.00,40.00,6,1,15,7.20
2013-6-3,103,90,73,41,26,15,29,12,5,0.00,40.00,4,1,20,7.20
2013-6-4,103,89,71,40,23,8,32,11,3,0.00,40.00,3,0,13,7.20
2013-6-5,104,89,73,39,25,13,28,12,4,0.00,40.00,5,1,15,7.20
2013-6-6,107,90,72,39,23,8,30,11,3,0.00,40.00,6,1,18,7.20
2013-6-7,108,90,72,38,23,8,27,11,3,0.00,40.00,7,1,16,7.20
2013-6-8,112,93,74,39,24,11,28,11,3,0.00,40.00,8,1,21,7.20
2013-6-9,112,96,76,38,23,12,25,9,3,0.00,40.00,5,1,20,7.20
2013-6-10,107,94,77,35,14,-2,20,7,2,0.00,40.00,7,2,25,7.20
2013-6-11,106,92,76,38,22,9,25,9,3,0.00,40.00,5,1,15,7.20
2013-6-12,107,93,76,43,27,15,30,11,4,0.00,40.00,6,1,16,7.20
2013-6-13,106,94,79,46,26,10,29,10,4,0.00,40.00,9,2,30,7.20
2013-6-14,105,91,75,32,20,7,20,9,3,0.00,40.00,9,1,29,7.20
2013-6-15,103,92,79,41,29,18,26,12,5,0.00,40.00,8,1,28,7.20
2013-6-16,106,92,77,39,23,9,25,10,3,0.00,40.00,5,1,17,7.20
2013-6-17,106,91,72,37,16,-5,27,9,2,0.00,40.00,7,1,19,7.20
2013-6-18,107,91,71,32,12,-2,22,7,2,0.00,40.00,8,1,26,7.20
2013-6-19,103,91,74,33,14,4,21,7,3,0.00,40.00,9,2,30,7.20
2013-6-20,103,85,72,28,18,6,18,9,3,0.00,40.00,6,1,15,4.80
2013-6-21,102,99,96,16,14,11,5,4,4,0.00,40.00,4,2,13,0.90
2013-6-22,104,95,75,34,18,12,22,7,4,0.00,40.00,7,2,22,5.10
2013-6-23,103,90,74,37,19,11,24,9,4,0.00,40.00,9,2,28,7.20
2013-6-24,97,88,78,37,22,11,21,10,5,0.00,40.00,9,2,26,7.20
2013-6-25,105,88,69,34,25,15,26,11,5,0.00,40.00,5,1,16,6.90
2013-6-26,109,94,75,41,28,15,30,11,4,0.00,40.00,7,1,17,7.20
2013-6-27,114,94,79,49,34,13,35,15,3,0.00,40.00,4,0,14,7.20
2013-6-28,112,98,82,49,34,20,31,12,4,0.00,40.00,2,0,8,7.20
2013-6-29,115,100,81,50,31,19,31,11,4,0.00,40.00,5,0,20,7.20
2013-6-30,113,96,81,49,36,21,32,14,4,0.00,40.00,6,0,14,7.20
2013-7-1,115,99,84,50,35,21,29,13,4,0.00,40.00,4,0,15,7.20
2013-7-2,108,96,84,54,42,26,34,17,7,0.00,40.00,7,1,25,7.11
2013-7-3,115,96,81,58,43,21,43,20,4,0.00,40.00,5,1,25,7.13
2013-7-4,113,100,84,55,39,28,36,14,6,0.00,40.00,7,1,18,7.44
2013-7-5,108,91,74,69,52,39,82,34,10,0.00,40.00,6,1,21,9.55
2013-7-6,100,84,75,69,61,48,79,51,18,0.00,40.00,5,0,17,17.71
2013-7-7,102,88,73,63,56,46,67,39,15,0.00,40.00,8,0,24,18.48
2013-7-8,107,89,79,60,49,-100,51,29,8,0.00,40.00,1,0,8,18.48
2013-7-9,110,93,75,53,38,18,44,19,4,0.00,40.00,5,0,13,18.48
2013-7-10,105,91,78,52,40,-100,37,19,7,0.00,40.00,4,0,15,17.71
2013-7-11,99,91,84,65,56,43,47,32,17,0.00,40.00,6,1,17,18.64
2013-7-12,98,87,79,63,57,49,57,38,19,0.00,40.00,5,1,15,18.96
2013-7-13,102,87,78,69,62,49,71,47,17,0.00,40.00,8,1,19,14.71
2013-7-14,106,97,79,69,54,45,71,27,14,0.00,40.00,7,1,18,10.20
2013-7-15,101,88,81,67,59,50,63,40,19,0.00,40.00,6,1,15,17.12
2013-7-16,100,85,78,63,60,53,58,43,22,0.00,40.00,6,1,17,25.68
2013-7-17,103,87,75,64,59,50,64,42,18,0.00,40.00,8,1,18,24.61
2013-7-18,101,86,79,67,59,50,64,43,18,0.00,40.00,6,1,19,25.87
2013-7-19,105,85,76,70,60,46,79,49,14,0.00,40.00,7,0,16,25.80
2013-7-20,104,85,73,68,60,-100,76,49,17,0.00,40.00,7,0,17,30.75
2013-7-21,100,85,73,69,62,51,80,52,22,0.00,40.00,10,1,25,38.77
2013-7-22,90,80,73,68,66,62,82,64,40,0.00,40.00,3,0,8,43.44
2013-7-23,102,86,77,67,62,54,68,47,22,0.00,40.00,5,1,11,39.82
2013-7-24,104,89,76,67,59,43,71,42,13,0.00,40.00,3,0,11,41.63
2013-7-25,103,91,80,61,57,50,47,34,18,0.00,40.00,7,1,20,41.63
2013-7-26,104,87,80,66,60,54,56,42,19,0.00,40.00,4,0,9,40.18
2013-7-27,95,85,79,63,60,57,57,43,29,0.00,40.00,5,1,18,44.40
2013-7-28,91,80,71,65,62,58,76,55,37,0.00,40.00,5,0,12,46.81
2013-7-29,98,81,69,68,61,45,89,58,19,0.00,40.00,5,0,13,47.40
2013-7-30,104,87,72,60,50,37,65,32,10,0.00,40.00,4,0,14,51.84
2013-7-31,104,89,74,61,51,41,59,31,12,0.00,40.00,4,0,11,51.84
2013-8-1,101,83,75,71,61,48,86,52,17,0.00,40.00,3,0,16,52.30
2013-8-2,101,84,73,72,63,38,87,58,13,0.00,40.00,3,0,14,70.32
2013-8-3,101,89,76,62,54,46,61,34,17,0.00,40.00,4,1,10,70.32
2013-8-4,102,86,75,62,55,45,62,38,15,0.00,40.00,7,1,15,70.32
2013-8-5,103,86,72,63,51,32,68,37,9,0.00,40.00,3,0,11,70.32
2013-8-6,91,85,80,57,50,36,45,31,15,0.00,40.00,5,0,10,70.32
2013-8-7,96,84,75,59,52,46,56,35,20,0.00,40.00,5,1,9,70.32
2013-8-8,103,86,71,54,40,21,55,26,6,0.00,40.00,7,0,14,70.32
2013-8-9,103,88,72,47,33,18,40,17,5,0.00,40.00,5,0,14,70.32
2013-8-10,99,87,75,52,40,26,42,21,9,0.00,40.00,5,0,16,70.32
2013-8-11,94,84,78,63,53,36,56,35,16,0.00,40.00,5,1,13,71.03
2013-8-12,100,83,71,58,51,31,64,38,10,0.00,40.00,7,0,22,71.76
2013-8-13,105,85,71,52,37,-100,50,24,6,0.00,40.00,3,0,12,71.76
2013-8-14,107,89,71,44,36,27,38,17,7,0.00,40.00,5,0,20,65.78
2013-8-21,99,83,75,65,57,48,70,44,19,0.00,40.00,7,0,13,75.99
2013-8-22,91,81,71,67,62,57,79,53,37,0.00,40.00,2,0,7,73.83
2013-8-23,96,84,75,60,56,47,54,39,23,0.00,40.00,5,1,15,73.83
2013-8-24,86,76,70,67,58,-100,84,56,36,0.00,40.00,2,0,7,76.71
2013-8-25,82,75,72,68,64,59,82,70,48,0.00,40.00,3,0,7,81.78
2013-8-26,85,75,70,70,66,61,89,74,49,0.00,40.00,2,0,6,89.41
2013-8-27,78,72,68,69,68,65,91,88,72,0.00,40.00,1,0,7,54.04
2013-10-2,92,76,61,44,35,28,52,25,11,0.00,40.00,7,1,20,0.00
2013-10-3,89,78,66,45,33,19,47,22,8,0.00,40.00,6,2,21,0.00
2013-10-4,75,65,56,27,23,20,31,20,13,0.00,40.00,6,1,12,0.00
2013-10-5,76,63,57,32,28,23,36,27,14,0.00,40.00,4,0,12,0.00
2013-10-6,84,67,52,33,28,22,42,25,10,0.00,40.00,4,1,13,0.00
2013-10-7,84,67,54,41,35,28,53,33,14,0.00,40.00,2,0,9,0.00
2013-10-8,88,71,55,39,30,19,53,26,8,0.00,40.00,4,0,12,0.00
2013-10-9,79,71,61,44,36,27,48,29,15,0.00,40.00,9,1,26,0.00
2013-10-10,70,56,49,47,43,32,83,62,24,0.00,40.00,7,1,31,0.00
2013-10-18,80,60,49,38,34,26,62,40,14,0.00,40.00,1,0,8,0.00
2013-10-19,79,59,48,37,30,-100,61,38,13,0.00,40.00,1,0,6,0.00
2013-10-20,83,63,48,37,31,20,60,34,10,0.00,40.00,3,0,11,0.00
2013-10-21,83,61,50,38,33,24,59,38,12,0.00,40.00,1,0,6,0.00
2013-10-22,82,64,50,37,30,22,54,31,12,0.00,40.00,4,0,10,0.00
2013-10-23,82,65,51,39,32,24,54,33,12,0.00,40.00,2,0,6,0.00
2013-10-24,82,67,56,41,34,26,50,33,13,0.00,40.00,4,0,12,0.00
2013-10-25,82,67,54,44,42,39,59,42,23,0.00,40.00,4,0,10,0.00
2013-10-26,84,63,53,47,38,-100,67,44,15,0.00,40.00,2,0,6,0.00
2013-10-27,82,67,53,43,38,32,62,37,19,0.00,40.00,1,0,11,0.00
2013-10-28,77,69,66,36,30,-100,31,24,19,0.00,40.00,11,4,35,0.00
2013-10-29,69,62,56,42,34,29,47,36,22,0.00,40.00,7,2,20,0.00
2013-10-30,65,58,53,38,34,31,49,40,29,0.00,40.00,7,1,18,0.00
2013-10-31,70,57,46,38,33,29,61,42,23,0.00,40.00,5,1,14,0.00
2013-11-1,77,57,46,37,34,29,64,44,18,0.00,40.00,1,0,5,0.00
2013-11-2,76,57,47,37,30,-100,60,40,18,0.00,40.00,4,0,11,0.00
2013-11-3,80,61,50,36,31,21,54,35,13,0.00,40.00,2,0,8,0.00
2013-11-4,66,58,51,38,31,28,46,36,26,0.00,40.00,4,0,9,0.00
2013-11-5,64,55,48,37,28,23,51,35,22,0.00,40.00,4,1,13,0.00
2013-11-6,66,52,41,25,20,14,47,31,13,0.00,40.00,4,0,10,0.00
2013-11-10,72,54,44,38,33,29,61,46,23,0.00,40.00,0,0,3,0.00
2013-11-11,76,55,44,37,33,30,63,45,19,0.00,40.00,2,0,7,0.00
2013-11-12,73,56,45,39,34,31,64,47,23,0.00,40.00,2,0,7,0.00
2013-11-13,75,58,48,37,34,31,61,44,20,0.00,40.00,2,0,7,0.00
2013-11-14,75,55,46,40,35,30,67,48,20,0.00,40.00,0,0,4,0.00
2013-11-15,77,65,51,40,36,30,51,35,22,0.00,40.00,7,2,17,0.00
2013-11-16,71,62,58,43,36,-100,55,41,26,0.00,40.00,7,2,26,0.00